Regional Weather Roundup
Issued by NWS

Home | Current Version | Previous Version | Graphics & Text | Print | Product List | Glossary On
Versions: 1 2 3 4 5 6 7 8 9 10 11 12 13 14 15 16 17 18 19 20 21 22 23 24 25 26 27 28 29 30 31 32 33 34 35 36 37 38 39 40 41 42 43 44 45 46 47 48 49 50
000
ASUS43 KMPX 280101
RWRMN
WEATHER ROUNDUP FOR MINNESOTA
NATIONAL WEATHER SERVICE TWIN CITIES/CHANHASSEN MN
800 PM CDT MON APR 27 2015


NOTE: "FAIR" INDICATES FEW OR NO CLOUDS BELOW 12,000 FEET WITH NO
SIGNIFICANT WEATHER AND/OR OBSTRUCTIONS TO VISIBILITY. N/A MEANS
CURRENT SKY AND/OR WEATHER CONDITIONS ARE NOT AVAILABLE.

MNZ060>063-068>070-280200-
   Twin Cities Metro

CITY           SKY/WX    TMP DP  RH WIND       PRES   REMARKS
TWIN CITIES    PTCLDY    65  24  21 N6        30.13S
ST PAUL        CLEAR     66  22  18 N3        30.13S
CRYSTAL        CLEAR     66  19  16 N5        30.12S
BLAINE         CLEAR    N/A N/A N/A N6        30.13S
LAKEVILLE      CLEAR     63  27  25 CALM      30.13S
EDEN PRAIRIE   CLEAR     65  24  21 NW3       30.13R
SOUTH ST PAUL  CLEAR     65  23  20 N3        30.13S
LAKE ELMO      FAIR      63  27  25 CALM      30.14S
$$
MNZ001>005-007-008-013>017-022>024-027-028-280200-
   Northwest Minnesota

CITY           SKY/WX    TMP DP  RH WIND       PRES   REMARKS
BEMIDJI        PTCLDY    59  29  31 NW5       30.13S
HALLOCK        CLOUDY    48  43  81 N13       30.24R
ROSEAU         CLOUDY    57  45  62 NW14      30.18S
WARROAD        CLOUDY    57  46  67 NW15      30.18R
THIEF RVR FALL CLOUDY    57  39  51 NW17      30.18R
CROOKSTON      CLOUDY    55  41  58 N22       30.20R
FOSSTON        MOCLDY    63  34  34 N13       30.15R
DETROIT LAKES  PTCLDY    64  27  24 W3        30.16S
MOORHEAD       MOCLDY    68  28  22 NW13G24   30.15R
PARK RAPIDS    PTCLDY    65  27  23 NW10      30.12S
MAHNOMEN       FAIR      67  27  21 W3        30.13S
$$
MNZ006-009>011-018-025>026-280200-
   North Central Minnesota

CITY           SKY/WX    TMP DP  RH WIND       PRES   REMARKS
BAUDETTE       MOCLDY    60  41  49 NW12      30.15R
FLAG ISLAND    CLOUDY    54  45  71 NW15      30.16S
INTL FALLS     MOCLDY    63  28  26 E3        30.13S
WASKISH        MOCLDY    61  37  41 CALM      30.13S
BIG FORK       PTCLDY    64  27  24 CALM      30.13R
LONGVILLE      PTCLDY    61  30  31 CALM      30.13S
GRAND RAPIDS   PTCLDY    63  27  25 CALM      30.13S
CRANE LAKE     MOCLDY    54  36  50 CALM      30.16S
ORR            PTCLDY    61  25  25 CALM      30.12S
COOK           PTCLDY    63  27  25 CALM      30.14F
WALKER         FAIR      64  29  26 CALM      30.13S
$$
MNZ012-019>021-037-280200-
   Northeast Minnesota

CITY           SKY/WX    TMP DP  RH WIND       PRES   REMARKS
DULUTH         PTCLDY    57  27  31 SE7       30.13S
ELY            PTCLDY    59  23  25 CALM      30.14F
HIBBING        PTCLDY    65  21  18 NE3       30.12S
EVELETH        PTCLDY    59  25  27 NE3       30.15R
DULUTH HARBOR  PTCLDY    43  36  75 E8        30.15F
TWO HARBORS    PTCLDY    55  34  44 CALM      30.13F
SILVER BAY     CLEAR     48  30  49 CALM      30.14F
GRAND MARAIS     N/A     43  30  60 W3        30.17F
G MARAIS ARPRT PTCLDY    45  25  45 S3        30.16F
$$
MNZ029>031-032-039>041-046>048-054>057-064-280200-
   West Central Minnesota

CITY           SKY/WX    TMP DP  RH WIND       PRES   REMARKS
FERGUS FALLS   PTCLDY    66  16  14 CALM      30.15S
WHEATON        PTCLDY    64  25  22 CALM      30.16F
MORRIS         PTCLDY    66  23  19 CALM      30.15S
ALEXANDRIA     PTCLDY    63  28  26 NW5       30.16S
ELBOW LAKE     FAIR      65  26  23 CALM      30.15S
WADENA         PTCLDY    64  30  27 W6        30.14S
GLENWOOD       PTCLDY    63  30  29 W5        30.16S
APPLETON       MOCLDY    64  21  19 SW3       30.15S
BENSON         PTCLDY    64  19  17 CALM      30.16S
ORTONVILLE     MOCLDY    66  18  15 CALM      30.15S
MADISON        MOCLDY    64  18  16 N5        30.16S
WILLMAR        FAIR      63  28  27 N6        30.17S
$$
MNZ033>034-036-042>043-049>051-058-059-280200-
   Central Minnesota

CITY           SKY/WX    TMP DP  RH WIND       PRES   REMARKS
ST CLOUD       CLEAR     64  31  28 CALM      30.13S
SAUK CENTRE    FAIR      63  29  28 W6        30.14S
PAYNESVILLE    PTCLDY    61  30  31 SW3       30.15S
AITKIN         PTCLDY    66   9  10 CALM      30.11S
PINE RIVER     PTCLDY    64  34  32 N3        30.15F
BRAINERD       CLEAR     64  26  23 N3        30.13S
STAPLES        PTCLDY    63  27  25 W7        30.13S
LONG PRAIRIE   FAIR      63  28  27 W3        30.15S
LITTLE FALLS   PTCLDY    64  23  20 CALM      30.13S
LITCHFIELD     PTCLDY    64  25  22 CALM      30.15S
BUFFALO        CLEAR     65  22  19 CALM      30.14S
MAPLE LAKE     CLEAR     64  29  26 CALM      30.14S
$$
MNZ037-044-045-052-053-280200-
   East Central Minnesota

CITY           SKY/WX    TMP DP  RH WIND       PRES   REMARKS
PRINCETON      CLEAR     63  28  27 CALM      30.13S
MORA           PTCLDY    61  27  27 CALM      30.14S
CAMBRIDGE      CLEAR     66  39  37 CALM      30.11F
RUSH CITY      CLEAR     64  25  23 CALM      30.12F
MOOSE LAKE     CLEAR     64  27  24 CALM      30.11S
HINCKLEY       FAIR      63  27  25 CALM      30.12S
CLOQUET        PTCLDY    63  18  17 NE5       30.13S
MCGREGOR       PTCLDY    64  23  20 CALM      30.13S
$$
MNZ071>073-080-081-089-090-097-098-280200-
   Southwest Minnesota

CITY           SKY/WX    TMP DP  RH WIND       PRES   REMARKS
MONTEVIDEO     PTCLDY    64  23  20 CALM      30.16S
GRANITE FALLS  PTCLDY    65  24  20 NW6       30.17S
CANBY          PTCLDY    66  17  15 CALM      30.17S
MARSHALL       PTCLDY    64  21  19 N8        30.15S
REDWOOD FALLS  PTCLDY    65  21  18 N5        30.15R
OLIVIA         PTCLDY    61  23  23 N3        30.15S
PIPESTONE      PTCLDY    64  19  17 NW7       30.16S
WINDOM         PTCLDY    64  19  17 CALM      30.15S
WORTHINGTON    CLEAR     63  21  20 NE7       30.16S
JACKSON        PTCLDY    61  16  17 N6        30.15S
TRACY          PTCLDY    64  23  20 N5        30.16R
SLAYTON        PTCLDY    63  19  18 CALM      30.16S
$$
MNZ065>067-074>077-082>085-091>093-280200-
   South Central Minnesota

CITY           SKY/WX    TMP DP  RH WIND       PRES   REMARKS
MANKATO        CLEAR     63  23  22 NE7       30.14S
NEW ULM        CLEAR     64  21  19 NE5       30.14S
ST JAMES       CLEAR     64  10  12 N6        30.15S
FAIRMONT       CLEAR     64  23  20 N5        30.14R
GLENCOE        CLEAR     66  26  22 CALM      30.14S
FARIBAULT      CLEAR     61  27  27 NW3       30.14S
OWATONNA       CLEAR     59  25  27 N5        30.14S
WASECA         CLEAR     63  28  27 VRB7      30.16S
ALBERT LEA     CLEAR     61  27  27 N6        30.13S
$$
MNZ078>079-086>088-094>096-280200-
   Southeast Minnesota

CITY           SKY/WX    TMP DP  RH WIND       PRES   REMARKS
ROCHESTER      CLEAR     58  32  37 N9        30.13S
RED WING       CLEAR     63  25  23 N3        30.11S
STANTON        CLEAR     62  24  23 N5        30.12S
DODGE CENTER   CLEAR     59  30  33 N7        30.14R
WINONA         CLEAR     63  32  31 CALM      30.11S HAZE
AUSTIN         CLEAR     59  30  33 N6        30.13R
PRESTON        CLEAR     58  32  36 N6        30.13S
$$
ABBREVIATIONS USED IN REMARKS
   TC - TEMPERATURES IN CELSIUS
  WCI - WIND CHILL INDEX
   HX - HEAT INDEX
  VSB - VISIBILITY
$$


USA.gov is the U.S. government's official web portal to all federal, state and local government web resources and services.